Terminal Aerodrome Forecast
Issued by NWS New Orleans/Baton Rouge, LA

Current Version | Previous Version | Text Only | Print | Product List | Glossary On
Versions: 1 2 3 4 5 6 7 8 9 10 11 12 13 14 15 16
000
FTUS44 KLIX 240500
TAFBTR
TAF
KBTR 240520Z 2406/2506 04003KT P6SM SKC
      TEMPO 2406/2408 3SM SHRA BKN030
     FM241500 32004KT P6SM SCT030 SCT050
     FM241900 31005KT P6SM VCSH SCT040
     FM250100 VRB02KT P6SM SKC=

USA.gov is the U.S. government's official web portal to all federal, state and local government web resources and services.